[[{"header":{"parameterUnit":"m.s-1","parameterCategory":1,"la1":30.2991,"la2":30.254,"lo1":-89.0895,"lo2":-89.0444,"dy":0.0017,"dx":0.0017,"nx":28,"ny":28,"refTime":"2024-07-21T03:00:00:Z","depth":0,"parameterNumber":2,"parameterNumberName":"U-component_of_WINDS"},"data":[0,0,0,0,0,0,0,0,0,0,0,0,0,0,0,0,0,0,0,0,0,0,0,0,0,0,0,0,0,0,0,0,0,0,0,0,0,0,0,0,0,0,0,0,0,0,0,0,0,0,0,0,0,0,0,0,0,0,2.4172,2.4174,0,2.4296,2.4298,2.4299,2.4297,2.4295,2.4293,2.4292,2.4418,2.4423,2.4428,0,0,0,0,0,0,0,0,0,0,0,0,0,2.3931,2.3936,2.4172,2.4174,2.4175,2.4296,2.4298,2.4299,2.4297,2.4295,2.4293,2.4291,2.4417,2.4423,2.4429,0,0,0,0,0,0,0,0,0,0,0,0,0,2.4044,2.3937,2.4172,2.4189,2.4191,2.4296,2.4298,2.43,2.4297,2.4295,2.4292,2.429,2.4415,2.4422,2.4429,2.4525,0,0,2.4452,2.4455,0,0,0,0,0,0,0,0,2.4037,2.4052,2.4185,2.4188,2.4191,2.4278,2.4259,2.4375,2.4298,2.4257,2.4292,2.4289,2.4374,2.4384,2.4413,2.4531,2.4536,2.4453,2.4457,2.446,2.4462,0,0,0,0,0,0,0,2.4029,2.4047,2.4221,2.4186,2.419,2.4189,2.4202,2.4281,2.4328,2.426,2.4261,2.4275,2.4375,2.4406,2.4416,2.4538,2.4452,2.4459,2.4463,2.4466,2.4738,2.474,0,0,0,0,0,0,2.4018,2.4041,2.4217,2.4225,2.4106,2.4196,2.421,2.4253,2.4327,2.4336,2.4277,2.4275,2.4395,2.4408,2.4421,2.4535,2.446,2.4467,2.4471,2.4735,2.4738,2.4741,0,0,0,0,0,0,2.4013,2.4034,2.4212,2.4133,2.4155,2.4202,2.425,2.4257,2.4288,2.434,2.4348,2.4301,2.4393,2.441,2.4498,2.454,2.447,2.4477,2.4732,2.4736,2.474,2.4767,0,0,0,0,0,0,2.4006,2.4032,2.407,2.4134,2.416,2.4289,2.4253,2.4261,2.43,2.4298,2.4364,2.4372,2.4393,2.4487,2.4506,2.4549,2.4483,2.4728,2.4734,2.4739,2.4762,2.4771,2.4779,0,0,0,0,0,2.3998,2.4073,2.4072,2.4093,2.4208,2.4291,2.4306,2.4328,2.4304,2.4341,2.4374,2.437,2.4533,2.4496,2.4517,2.4563,2.4726,2.4732,2.4738,2.4758,2.4769,2.4779,0,0,0,0,0,0,2.4013,2.4082,2.4081,2.4179,2.4229,2.4291,2.4338,2.4339,2.4397,2.4392,2.4417,2.4432,2.4519,2.455,2.4509,2.4658,2.4626,2.4637,2.4634,2.4645,2.4653,2.4643,2.4489,0,0,0,0,0,2.4028,2.409,2.4147,2.4228,2.4253,2.4291,2.4329,2.4341,2.4394,2.4415,2.4455,2.4506,2.4568,2.4609,2.4669,2.4767,2.478,2.4808,2.4817,2.4823,2.4832,2.4883,2.4896,2.4762,2.4762,2.4762,0,0,2.4059,2.4104,2.4142,2.4232,2.4272,2.4335,2.4309,2.4378,2.4425,2.4426,2.451,2.4541,2.46,2.4693,2.4736,2.4721,2.4872,2.4831,2.4836,2.4841,2.4891,2.4903,2.4914,2.4766,2.4765,2.4765,0,0,2.4147,2.4189,2.426,2.43,2.4361,2.4386,2.4403,2.4464,2.4484,2.457,2.4571,2.4627,2.4734,2.4775,2.481,2.4912,2.4909,2.4931,2.4974,2.5023,2.5034,2.5043,2.5077,2.5089,2.4939,2.494,2.494,0,2.4178,2.4274,2.4296,2.4364,2.4403,2.4406,2.4477,2.4515,2.4593,2.4619,2.4602,2.4735,2.4775,2.4876,2.49,2.4929,2.4948,2.4923,2.5031,2.504,2.5049,2.5082,2.5095,2.4942,2.4941,2.4941,2.4941,0,2.4308,2.4374,2.4424,2.4497,2.4542,2.4611,2.4643,2.4685,2.4693,2.4719,2.4805,2.4853,2.4922,2.4947,2.4957,2.5049,2.5038,2.5025,2.4993,2.5064,2.5094,2.5107,2.4945,2.4944,2.4943,2.4943,0,0,2.441,2.4493,2.4511,2.4544,2.461,2.4661,2.473,2.4797,2.4831,2.4885,2.4942,2.5031,2.502,2.5059,2.5073,2.5117,2.5191,2.5099,2.5101,2.5112,2.5293,2.53,2.5314,2.519,2.5193,2.5195,2.5287,0,2.4503,2.4625,2.4646,2.4752,2.4812,2.4816,2.4875,2.4922,2.4948,2.5002,2.5031,2.5093,2.5074,2.5097,2.5141,2.5173,2.5227,2.5167,2.5242,2.5244,2.5225,2.5331,2.5339,2.5424,2.53,2.5302,2.5303,0,2.4629,2.4684,2.4796,2.4852,2.4878,2.4931,2.4993,2.5045,2.5098,2.5113,2.5156,2.5164,2.5234,2.52,2.5296,2.5254,2.5286,2.5306,2.531,2.5316,2.5277,2.5338,2.5452,2.5464,2.5323,2.5321,2.532,0,2.4689,2.4791,2.4871,2.4899,2.4967,2.5004,2.5034,2.5084,2.5122,2.5176,2.52,2.5262,2.5295,2.5342,2.5366,2.534,2.5459,2.5428,2.5472,2.5472,2.5496,2.5494,2.5614,2.552,2.552,2.552,2.552,0,2.479,2.4858,2.4898,2.4947,2.5022,2.5045,2.5119,2.5148,2.5192,2.5246,2.5253,2.5303,2.5332,2.5386,2.5405,2.548,2.5496,2.5509,2.5513,2.5507,2.5505,2.5527,2.5521,2.5523,2.5523,2.5522,2.5521,0,2.4869,2.4899,2.4986,2.5043,2.5058,2.5111,2.5159,2.5206,2.5232,2.5299,2.5316,2.5356,2.5419,2.5448,2.5527,2.554,2.5624,2.5625,2.5606,2.5607,2.5649,2.5643,2.5786,2.5805,2.57,2.5701,2.5702,0,2.4931,2.4983,2.5045,2.5081,2.5112,2.517,2.5209,2.5233,2.5273,2.5335,2.5374,2.5437,2.5489,2.559,2.5626,2.5685,2.5686,2.5732,2.5695,2.5687,2.5684,2.568,2.5684,2.5738,2.5739,2.574,2.5741,0,2.5037,2.5048,2.5103,2.5163,2.5209,2.5257,2.5305,2.5334,2.5365,2.5409,2.5474,2.5514,2.5594,2.5656,2.5717,2.5747,2.5749,2.5752,2.5765,2.5759,2.5745,2.575,2.5622,2.5749,2.5748,2.5747,2.5747,2.5746,2.5108,2.5153,2.5202,2.5263,2.5301,2.5345,2.539,2.5421,2.5475,2.5541,2.5553,2.5621,2.567,2.5752,2.5784,2.5837,2.5826,2.5846,2.585,2.5854,2.5855,2.5738,2.5849,2.5849,2.5849,2.5849,2.5848,0,2.5211,2.5243,2.5298,2.5364,2.5411,2.5408,2.546,2.5499,2.5559,2.5605,2.5655,2.5728,2.5788,2.5828,2.5888,2.5922,2.5924,2.5937,2.5934,2.594,2.5863,2.5845,2.5934,2.5934,2.5934,2.5934,2.5934,2.5934,2.527,2.5346,2.5363,2.5457,2.5488,2.5554,2.5584,2.5623,2.5659,2.574,2.579,2.5815,2.5858,2.5921,2.5975,2.5985,2.6006,2.6019,2.6028,2.5955,2.5946,2.5937,2.592,2.6024,2.6024,2.61,2.6101,2.6101]},{"header":{"parameterUnit":"m.s-1","parameterCategory":1,"la1":30.2991,"la2":30.254,"lo1":-89.0895,"lo2":-89.0444,"dy":0.0017,"dx":0.0017,"nx":28,"ny":28,"refTime":"2024-07-21T03:00:00:Z","depth":0,"parameterNumber":3,"parameterNumberName":"V-component_of_WINDS"},"data":[0,0,0,0,0,0,0,0,0,0,0,0,0,0,0,0,0,0,0,0,0,0,0,0,0,0,0,0,0,0,0,0,0,0,0,0,0,0,0,0,0,0,0,0,0,0,0,0,0,0,0,0,0,0,0,0,0,0,0.6713,0.6714,0,0.6765,0.6766,0.6767,0.6769,0.6768,0.6767,0.6767,0.6821,0.6823,0.6825,0,0,0,0,0,0,0,0,0,0,0,0,0,0.6615,0.6616,0.6713,0.6714,0.6714,0.6765,0.6766,0.6767,0.6769,0.6768,0.6767,0.6767,0.682,0.6822,0.6825,0,0,0,0,0,0,0,0,0,0,0,0,0,0.6661,0.6617,0.6713,0.6722,0.6723,0.6765,0.6766,0.6767,0.6769,0.6768,0.6767,0.6766,0.6819,0.6822,0.6825,0.6862,0,0,0.6834,0.6836,0,0,0,0,0,0,0,0,0.6659,0.6665,0.672,0.6721,0.6723,0.676,0.6751,0.6799,0.6769,0.6752,0.6767,0.6766,0.6801,0.6805,0.6817,0.6865,0.6867,0.6835,0.6836,0.6838,0.6838,0,0,0,0,0,0,0,0.6655,0.6663,0.6734,0.672,0.6722,0.6723,0.6728,0.676,0.6781,0.6753,0.6753,0.6759,0.6802,0.6814,0.6819,0.6868,0.6834,0.6837,0.6839,0.684,0.6948,0.6949,0,0,0,0,0,0,0.665,0.666,0.6732,0.6735,0.6688,0.6725,0.6731,0.6749,0.6781,0.6785,0.676,0.6759,0.681,0.6815,0.6821,0.6867,0.6838,0.684,0.6842,0.6947,0.6949,0.695,0,0,0,0,0,0,0.6648,0.6657,0.673,0.6698,0.6707,0.6728,0.6747,0.675,0.6763,0.6786,0.679,0.6769,0.6809,0.6816,0.6852,0.6868,0.6842,0.6845,0.6946,0.6948,0.6949,0.6959,0,0,0,0,0,0,0.6645,0.6656,0.6671,0.6698,0.6709,0.6761,0.6748,0.6752,0.6768,0.6768,0.6796,0.6799,0.6809,0.6847,0.6855,0.6872,0.6847,0.6945,0.6947,0.6949,0.6957,0.6961,0.6964,0,0,0,0,0,0.6642,0.6671,0.6671,0.668,0.6728,0.6762,0.6768,0.6778,0.677,0.6784,0.6799,0.6799,0.6865,0.6851,0.6859,0.6878,0.6944,0.6946,0.6949,0.6956,0.696,0.6963,0,0,0,0,0,0,0.6646,0.6675,0.6676,0.6715,0.6736,0.6762,0.6781,0.6782,0.6806,0.6805,0.6817,0.6823,0.6858,0.6871,0.6855,0.6915,0.6903,0.6908,0.6906,0.691,0.6913,0.691,0.6849,0,0,0,0,0,0.6651,0.6677,0.6701,0.6733,0.6744,0.676,0.6776,0.6782,0.6804,0.6813,0.683,0.6852,0.6877,0.6894,0.6919,0.6958,0.6965,0.6975,0.6978,0.6981,0.6985,0.7006,0.7012,0.6958,0.6958,0.6958,0,0,0.6663,0.6682,0.6697,0.6734,0.6751,0.6777,0.6768,0.6796,0.6816,0.6817,0.6852,0.6865,0.689,0.6928,0.6945,0.694,0.7001,0.6984,0.6986,0.6988,0.7009,0.7015,0.7019,0.6959,0.6959,0.6959,0,0,0.6698,0.6714,0.6743,0.676,0.6786,0.6797,0.6803,0.6829,0.6838,0.6873,0.6875,0.6898,0.6942,0.6959,0.6974,0.7014,0.7015,0.7022,0.7039,0.706,0.7064,0.7068,0.7082,0.7088,0.7025,0.7025,0.7025,0,0.6709,0.6748,0.6758,0.6786,0.6802,0.6804,0.6834,0.6849,0.6882,0.6893,0.6886,0.6941,0.6958,0.7,0.7009,0.7021,0.7029,0.7019,0.7063,0.7066,0.707,0.7084,0.709,0.7026,0.7026,0.7026,0.7026,0,0.6761,0.6788,0.6808,0.684,0.6858,0.6886,0.69,0.6917,0.6921,0.6933,0.6968,0.6988,0.7017,0.7027,0.7031,0.7069,0.7065,0.706,0.7048,0.7076,0.7089,0.7095,0.7027,0.7027,0.7026,0.7026,0,0,0.6801,0.6837,0.6844,0.6858,0.6886,0.6907,0.6935,0.6963,0.6978,0.7,0.7024,0.706,0.7056,0.7072,0.7078,0.7097,0.7127,0.709,0.709,0.7097,0.7171,0.7175,0.7181,0.7127,0.7128,0.7129,0.7169,0,0.684,0.689,0.6899,0.6943,0.6969,0.697,0.6995,0.7014,0.7025,0.7048,0.706,0.7086,0.7078,0.7088,0.7106,0.712,0.7142,0.7117,0.715,0.7151,0.7145,0.7188,0.7193,0.7229,0.7174,0.7175,0.7176,0,0.6892,0.6915,0.6962,0.6985,0.6996,0.7018,0.7045,0.7066,0.7088,0.7095,0.7113,0.7116,0.7145,0.7131,0.7171,0.7153,0.7167,0.7176,0.7177,0.7182,0.7166,0.7194,0.7241,0.7247,0.7184,0.7183,0.7183,0,0.6917,0.696,0.6993,0.7005,0.7034,0.7049,0.7062,0.7083,0.7099,0.7121,0.7132,0.7157,0.7172,0.7191,0.7201,0.719,0.7241,0.7227,0.7247,0.7247,0.7259,0.7259,0.731,0.7266,0.7266,0.7266,0.7266,0,0.696,0.6989,0.7005,0.7026,0.7058,0.7067,0.7098,0.7111,0.7129,0.7152,0.7154,0.7176,0.7187,0.721,0.7218,0.725,0.7256,0.7263,0.7265,0.7263,0.7263,0.7273,0.7272,0.7267,0.7267,0.7267,0.7267,0,0.6995,0.7007,0.7044,0.7067,0.7074,0.7096,0.7117,0.7137,0.7147,0.7176,0.7183,0.7199,0.7226,0.7238,0.7271,0.7276,0.7313,0.7313,0.7306,0.7307,0.7327,0.7325,0.7388,0.7397,0.7346,0.7347,0.7347,0,0.7022,0.7044,0.707,0.7085,0.7098,0.7123,0.714,0.7149,0.7166,0.7192,0.7209,0.7236,0.7258,0.7301,0.7316,0.7341,0.7342,0.7362,0.7346,0.7343,0.7343,0.7342,0.7344,0.7365,0.7366,0.7366,0.7366,0,0.7069,0.7074,0.7097,0.7123,0.7142,0.7163,0.7183,0.7195,0.7207,0.7226,0.7254,0.7271,0.7305,0.7331,0.7357,0.737,0.737,0.7371,0.7377,0.7377,0.7372,0.7375,0.7315,0.737,0.737,0.7369,0.7369,0.7369,0.7102,0.7121,0.7142,0.7168,0.7184,0.7203,0.7223,0.7235,0.7258,0.7286,0.729,0.732,0.734,0.7375,0.7388,0.7411,0.7406,0.7415,0.7418,0.742,0.7421,0.7367,0.7416,0.7416,0.7416,0.7416,0.7416,0,0.7149,0.7163,0.7186,0.7214,0.7235,0.7232,0.7254,0.7271,0.7297,0.7316,0.7338,0.7369,0.7395,0.7411,0.7437,0.7452,0.7453,0.7459,0.7458,0.7461,0.7424,0.7417,0.7458,0.7458,0.7457,0.7457,0.7457,0.7457,0.7177,0.721,0.7217,0.7258,0.7271,0.73,0.7312,0.7329,0.7344,0.738,0.7401,0.7411,0.7429,0.7456,0.7479,0.7483,0.7493,0.7499,0.7503,0.7468,0.7464,0.746,0.7453,0.7501,0.7501,0.7538,0.7538,0.7538]}]]